Seattle, WA
on Tuesday, December 4, 2012

Tuesday
Previous Day Next Day
Daily Summary
 ActualAverageRecord
Temperature
Mean Temperature °F 42°F  
Max Temperature 53°F 47°F 57°F (1989)
Min Temperature 45°F 36°F 21°F (1994)
Degree Days
Heating Degree Days 16 23  
Month to date heating degree days 66 92  
Since 1 July heating degree days 1093 1275  
Cooling Degree Days 0 0  
Month to date cooling degree days 0 0  
Year to date cooling degree days 177 189  
Moisture
Dew Point 43°F   
Average Humidity 80    
Maximum Humidity 89    
Minimum Humidity 71    
Precipitation
Precipitation 0.56 in 0.19 in 1.41 in (1989)
Month to date precipitation 2.00 0.79  
Year to date precipitation 43.41 32.93  
Snow
Snow 0.00 in in 0.40 in (1956)
Month to date snowfall 0.0  
Since 1 July snowfall 0.0  
Snow Depth 0.00 in   
Wind
Wind Speed 14 mph   
Max Wind Speed 25 mph   
Max Gust Speed 33 mph   
Visibility 8 miles   
Events Rain   

Key: T is trace of precipitation, MM is missing value
Source: NWS Daily Summary
Time(PST)TemperatureDew PointHumidity Pressure Visibility Wind DirectionWind SpeedGust SpeedPrecipitationEvents Conditions
12:53 AM 46.9°F 42.1°F 83% 29.63 in 6.0 miles East 8.1 mph - 0.06 in Rain Rain
1:53 AM 46.9°F 42.1°F 83% 29.57 in 6.0 miles ESE 6.9 mph - 0.19 in Rain Rain
2:53 AM 46.0°F 43.0°F 89% 29.56 in 4.0 miles SE 12.7 mph - 0.07 in Rain Light Rain
3:38 AM 46.4°F 42.8°F 87% 29.53 in 4.0 miles SE 9.2 mph - 0.02 in Rain Light Rain
3:53 AM 46.0°F 43.0°F 89% 29.55 in 4.0 miles SE 8.1 mph - 0.02 in Rain Light Rain
4:53 AM 46.9°F 44.1°F 90% 29.57 in 10.0 miles SSE 11.5 mph - 0.01 in Rain Light Rain
5:53 AM 50.0°F 46.0°F 86% 29.61 in 5.0 miles South 9.2 mph - 0.01 in Rain Light Rain
6:35 AM 51.8°F 48.2°F 88% 29.62 in 4.0 miles South 17.3 mph 25.3 mph 0.01 in Rain Light Rain
6:53 AM 52.0°F 48.0°F 86% 29.65 in 4.0 miles SSW 16.1 mph 25.3 mph 0.03 in Rain Light Rain
7:17 AM 51.8°F 48.2°F 88% 29.65 in 4.0 miles SSW 13.8 mph - 0.01 in Rain Light Rain
7:53 AM 51.1°F 48.0°F 89% 29.68 in 9.0 miles South 15.0 mph 19.6 mph 0.04 in   Mostly Cloudy
8:53 AM 51.1°F 46.9°F 86% 29.73 in 10.0 miles SW 16.1 mph 21.9 mph 0.00 in   Mostly Cloudy
9:22 AM 51.8°F 46.4°F 82% 29.73 in 10.0 miles SW 12.7 mph 20.7 mph 0.00 in Rain Light Rain
9:38 AM 51.8°F 44.6°F 76% 29.74 in 10.0 miles SW 17.3 mph 25.3 mph 0.00 in   Mostly Cloudy
9:53 AM 51.1°F 46.0°F 83% 29.77 in 10.0 miles SSW 13.8 mph - 0.00 in   Mostly Cloudy
10:53 AM 51.1°F 45.0°F 80% 29.78 in 10.0 miles South 16.1 mph - N/A   Mostly Cloudy
11:53 AM 52.0°F 44.1°F 74% 29.78 in 10.0 miles SSW 13.8 mph - N/A   Mostly Cloudy
12:53 PM 51.1°F 42.1°F 71% 29.77 in 10.0 miles South 16.1 mph 23.0 mph 0.00 in   Mostly Cloudy
1:53 PM 51.1°F 41.0°F 68% 29.76 in 10.0 miles SSW 15.0 mph 20.7 mph 0.00 in Rain Light Rain
2:53 PM 51.1°F 42.1°F 71% 29.75 in 10.0 miles SSW 15.0 mph 29.9 mph 0.00 in   Mostly Cloudy
3:29 PM 48.2°F 41.0°F 76% 29.75 in 10.0 miles West 18.4 mph 24.2 mph N/A   Mostly Cloudy
3:37 PM 48.2°F 41.0°F 76% 29.76 in 10.0 miles WSW 12.7 mph 24.2 mph 0.00 in Rain Light Rain
3:53 PM 46.9°F 43.0°F 86% 29.78 in 10.0 miles SW 10.4 mph 20.7 mph 0.01 in Rain Light Rain
4:53 PM 48.0°F 43.0°F 83% 29.76 in 10.0 miles South 12.7 mph - 0.00 in   Mostly Cloudy
5:53 PM 48.0°F 44.1°F 86% 29.74 in 10.0 miles South 10.4 mph - 0.00 in   Mostly Cloudy
6:53 PM 48.0°F 41.0°F 77% 29.78 in 4.0 miles West 20.7 mph 27.6 mph 0.00 in Rain Rain
6:55 PM 46.4°F 39.2°F 76% 29.76 in 3.0 miles WSW 15.0 mph 27.6 mph 0.01 in Rain Heavy Rain
7:16 PM 46.4°F 41.0°F 81% 29.75 in 9.0 miles SW 15.0 mph 21.9 mph 0.08 in Rain Light Rain
7:53 PM 46.0°F 41.0°F 83% 29.77 in 10.0 miles South 15.0 mph - 0.11 in Rain Light Rain
8:53 PM 46.0°F 41.0°F 83% 29.78 in 10.0 miles South 18.4 mph - 0.00 in Rain Light Rain
9:53 PM 46.9°F 41.0°F 80% 29.82 in 10.0 miles SSW 12.7 mph 24.2 mph 0.00 in   Overcast
10:53 PM 46.9°F 39.9°F 77% 29.85 in 10.0 miles South 15.0 mph 23.0 mph N/A   Overcast
11:53 PM 46.0°F 39.0°F 76% 29.88 in 10.0 miles SSW 21.9 mph 33.4 mph 0.01 in Rain Light Rain
Moon Phase
Dec. 04 Dec. 06 Dec. 13 Dec. 20 Dec. 28
Sunrise:07:40 AM (PST) Moon Rise:10:29 PM (PST)12/4
Sunset:04:19 PM (PST) Moon Set:11:22 AM (PST)12/4

Copyright © 2014 The Weather Underground, Inc.